Location: Peebles
(55.6412°N, 3.1714°W)
Time: 08:57:02
(UTC+01:00)

FENGYUN 1C DEB - Pass Details

Date: 11 July 2022
Orbit: 757 x 834 km, 99.1° (Epoch: 04 August)

Event Time Altitude Azimuth Distance (km) Brightness Sun altitude
Rises 02:02:48 0° 121° (ESE) 3,330 ? -11.7°
Reaches altitude 10° 02:05:28 10° 110° (ESE) 2,390 ? -11.6°
Maximum altitude 02:09:48 27° 54° (NE) 1,502 ? -11.5°
Drops below altitude 10° 02:14:05 10° 359° (N) 2,358 ? -11.3°
Sets 02:16:41 0° 347° (NNW) 3,279 ? -11.2°
